Weather History for El Centro, CA

Change the Weather History Date:

Sunday, May 26, 2013

  Actual Average Record
Temperature  
Mean Temperature 83 °F -  
Max Temperature 97 °F 95 °F 102 °F (1999)
Min Temperature 70 °F 68 °F 57 °F (2012)
Cooling Degree Days 18    
Growing Degree Days 33 (Base 50)    
Moisture  
Dew Point 29 °F    
Average Humidity 15    
Maximum Humidity 21    
Minimum Humidity 8    
Precipitation  
Precipitation 0.00 in - - ()
Sea Level Pressure  
Sea Level Pressure 29.87 in    
Wind  
Wind Speed 18 mph (WSW)    
Max Wind Speed 31 mph    
Max Gust Speed 38 mph    
Visibility 10 miles    
Events      
Averages and records for this station are not official NWS values.
T = Trace of Precipitation, MM = Missing Value Source: NWS Daily Summary

Daily Weather History Graph

Daily Weather History Graph

Search for Another Location

Airport:

Trip Planner

Search our weather history database for the weather conditions in past years. The results will help you decide how hot, cold, wet, or windy it might be!

Date:

Astronomy

May. 26, 2013 Rise Set
Actual Time 5:37 AM PDT 7:42 PM PDT
Civil Twilight 5:09 AM PDT 8:10 PM PDT
Nautical Twilight 4:35 AM PDT 8:44 PM PDT
Astronomical Twilight 3:59 AM PDT 9:20 PM PDT
Moon 9:35 PM PDT (5/26) 7:10 AM PDT (5/26)
Length of Visible Light 15h 00m
Length of Day
14h 05m
Waning Gibbous, 96% of the Moon is Illuminated
May 26
Waning Gibbous
May 31
Last Quarter
Jun 8
New
Jun 16
First Quarter
Jun 23
Full

Hourly Weather History & Observations

Time (PDT) Temp. Dew Point Humidity Pressure Visibility Wind Dir Wind Speed Gust Speed Precip Events Conditions
12:56 AM 75.9 °F 28.0 °F 17% 29.86 in 10.0 mi West 23.0 mph - N/A   Clear
1:56 AM 75.9 °F 32.0 °F 20% 29.85 in 10.0 mi WSW 31.1 mph 38.0 mph N/A   Clear
2:56 AM 73.9 °F 30.9 °F 21% 29.85 in 10.0 mi WSW 24.2 mph 29.9 mph N/A   Clear
3:56 AM 71.1 °F 28.0 °F 20% 29.85 in 10.0 mi West 13.8 mph - N/A   Clear
4:56 AM 70.0 °F 19.9 °F 15% 29.87 in 10.0 mi West 9.2 mph - N/A   Clear
5:56 AM 72.0 °F 27.0 °F 19% 29.88 in 10.0 mi WSW 16.1 mph - N/A   Clear
6:56 AM 73.0 °F 28.9 °F 20% 29.91 in 10.0 mi WSW 15.0 mph - N/A   Clear
7:56 AM 77.0 °F 25.0 °F 15% 29.92 in 10.0 mi West 13.8 mph - N/A   Clear
8:56 AM 81.0 °F 24.1 °F 12% 29.94 in 10.0 mi WSW 12.7 mph - N/A   Clear
9:56 AM 84.0 °F 23.0 °F 11% 29.94 in 10.0 mi WSW 8.1 mph - N/A   Clear
10:56 AM 87.1 °F 21.9 °F 9% 29.93 in 10.0 mi SW 8.1 mph - N/A   Clear
11:56 AM 90.0 °F 21.0 °F 8% 29.92 in 10.0 mi South 6.9 mph - N/A   Clear
12:56 PM 91.0 °F 30.9 °F 12% 29.90 in 10.0 mi SSE 8.1 mph - N/A   Clear
1:56 PM 93.0 °F 30.9 °F 11% 29.88 in 10.0 mi SE 10.4 mph 16.1 mph N/A   Clear
2:56 PM 96.1 °F 28.0 °F 9% 29.86 in 10.0 mi WSW 18.4 mph 21.9 mph N/A   Clear
3:08 PM 96.8 °F 28.4 °F 9% 29.81 in 10.0 mi WSW 16.1 mph - N/A   Clear
3:56 PM 96.1 °F 28.0 °F 9% 29.83 in 10.0 mi WSW 16.1 mph - N/A   Clear
4:56 PM 93.9 °F 35.1 °F 13% 29.83 in 10.0 mi WSW 25.3 mph 32.2 mph N/A   Clear
5:56 PM 91.0 °F 35.1 °F 14% 29.83 in 10.0 mi WSW 25.3 mph - N/A   Clear
6:56 PM 87.1 °F 35.1 °F 16% 29.83 in 10.0 mi WSW 24.2 mph 31.1 mph N/A   Clear
7:56 PM 82.9 °F 33.1 °F 17% 29.85 in 10.0 mi WSW 20.7 mph - N/A   Clear
8:56 PM 80.1 °F 33.1 °F 18% 29.86 in 10.0 mi West 16.1 mph - N/A   Clear
9:56 PM 79.0 °F 30.0 °F 17% 29.88 in 10.0 mi West 19.6 mph - N/A   Clear
10:56 PM 77.0 °F 30.9 °F 19% 29.88 in 10.0 mi West 11.5 mph - N/A   Clear
11:56 PM 75.9 °F 32.0 °F 20% 29.87 in 10.0 mi WSW 15.0 mph - N/A   Clear